Voltar ao catálogo

APOLINK IPOS

AtivoComunicaçõesSSO
NORAD 69877·PAYLOAD·🇺🇸 United States
Este nome de satélite ainda não foi confirmado por fontes oficiais.

Lançado Jul 7, 2026 de Vandenberg Space Force Base

Loading…

Próximas Passagens (próximas 24 horas)

TLE

AtualizadoSource: Space-Track

Época: Sep 13, 2026, 23:23 UTC

1 69877U 26156J   26256.97460996  .00002618  00000-0  26616-3 0  9999
2 69877  97.7461 156.2588 0003321 281.9442  78.1404 14.91639701 10238

Acompanhe APOLINK IPOS em tempo real com AllMySat

Download on the App Store